Location: Newark
(34.1333°N, 7.9667°W)
Time: 20:01:13
(UTC+00:00)

Tiangong - Visible Passes

Search period start: 26 September 2021 00:00
Search period end: 06 October 2021 00:00
Orbit: 382 x 385 km, 41.5° (Epoch: 26 September)

Date Brightness Start Highest point End Pass type
(mag) Time Alt. Az. Time Alt. Az. Time Alt. Az.
26 Sep 1.1 05:32:09 19° WSW 05:34:16 65° NNW 05:37:25 10° ENE visible
27 Sep 2.4 04:35:19 39° E 04:35:19 39° E 04:37:30 10° ENE visible
28 Sep 1.9 05:10:36 33° NW 05:11:17 39° NNW 05:14:17 10° NE visible
29 Sep 4.1 04:13:37 16° ENE 04:13:37 16° ENE 04:14:26 10° ENE visible
29 Sep 2.8 05:45:52 10° WNW 05:48:27 23° N 05:51:03 10° NE visible
30 Sep 2.7 04:48:47 26° N 04:48:47 26° N 04:51:07 10° NE visible
01 Oct 3.0 05:23:56 15° NW 05:25:33 21° N 05:28:02 10° NE visible
02 Oct 3.8 04:26:52 16° NNE 04:26:52 16° NNE 04:27:59 10° NE visible
02 Oct 2.9 06:00:09 10° NW 06:02:49 24° N 06:05:28 10° ENE visible
03 Oct 3.0 05:02:00 20° NNW 05:02:39 21° N 05:05:08 10° ENE visible
04 Oct 2.5 05:37:10 11° NW 05:39:49 31° NNE 05:42:41 10° E visible
05 Oct 3.2 04:40:10 23° NNE 04:40:10 23° NNE 04:42:18 10° ENE visible
